Location: Rio Negrinho
(26.2394°S, 49.4999°W)
Time: 22:49:16
(UTC+00:00)

CZ-4B R/B - Pass Details

Date: 07 June 2020
Orbit: 808 x 882 km, 99.1° (Epoch: 10 July)

Event Time Altitude Azimuth Distance (km) Brightness Sun altitude
Rises 09:14:13 0° 352° (N) 3,316 6.5 -10.5°
Reaches altitude 10° 09:16:45 10° 342° (NNW) 2,388 5.6 -9.9°
Maximum altitude 09:21:27 33° 279° (W) 1,346 3.8 -8.9°
Drops below altitude 10° 09:26:12 10° 216° (SW) 2,414 5.1 -7.9°
Sets 09:28:47 0° 206° (SSW) 3,357 5.9 -7.4°
